Location: St. Louis
(38.6270°N, 90.1994°W)
Time: 09:02:04
(UTC-06:00)

Vanguard 2 Rocket - Pass Details

Date: 01 December 2021
Orbit: 553 x 3325 km, 32.9° (Epoch: 23 January)

Event Time Altitude Azimuth Distance (km) Brightness Sun altitude
Rises 23:05:56 0° 276° (W) 4,905 - -70.8°
Reaches altitude 10° 23:08:46 10° 271° (W) 4,228 - -71.1°
Maximum altitude 23:20:33 51° 200° (SSW) 3,108 - -72.2°
Drops below altitude 10° 23:38:31 10° 133° (SE) 6,216 - -73.2°
Sets 23:43:49 0° 129° (SE) 7,305 - -73.3°
